Meteo Giornale » Osservazioni meteo Italia » Lamezia Terme

ore: 08:50 - Osservazioni Meteo Lamezia Terme
Lat. 38° 54' N Lon. 16° 15' E Alt. 15 metri s.l.m.

nuvoloso Europe/Rome

25 °C

Nuvoloso

Temp. 24 Ore

18 °C

27 °C

Sud-Ovest

13 Km/h

Dew point 20 °C

Umidità 73 %

Visibilità  10 Km

Il sole sorge alle ore 05:28

Il sole tramonta alle ore 20:25

Data e Ora Cielo e Fenomeni T °C DP °C Um. % Pres. hPa Vis. km Vento km/h
Oggi h: 08:50 nuvoloso Nuvoloso 25 20 73 1015 10 SO 13
Oggi h: 07:50 nuvoloso Nuvoloso 23 20 83 1015 10 N 5.5
Oggi h: 06:50 nuvoloso Nuvoloso 21 20 94 1015 10 N 0
Oggi h: 05:50 nuvoloso Nuvoloso 19 18 93 1015 10 N 1.8
Oggi h: 04:50 poco_nuvoloso Poco Nuvoloso 18 17 93 1015 10 N 5.5
Oggi h: 03:50 poco_nuvoloso Poco Nuvoloso 19 17 88 1015 10 N 3.7
Oggi h: 02:50 poco_nuvoloso Poco Nuvoloso 19 17 88 1015 10 N 3.7
Oggi h: 01:50 poco_nuvoloso Poco Nuvoloso 19 17 88 1016 10 N 1.8
Oggi h: 00:50 poco_nuvoloso Poco Nuvoloso 20 17 82 1016 10 N 0
Ieri h: 23:50 nuvoloso Nuvoloso 20 18 88 1016 10 N/NE 7.4
Ieri h: 22:50 poco_nuvoloso Poco Nuvoloso 22 19 83 1016 10 N 3.7
Ieri h: 21:50 sereno Sereno 24 20 78 1016 10 O/SO 7.4
Ieri h: 20:50 sereno Sereno 23 20 83 1015 10 O/SO 13
Ieri h: 19:50 poco_nuvoloso Poco Nuvoloso 24 19 73 1015 10 O 16.7
Ieri h: 18:50 poco_nuvoloso Poco Nuvoloso 25 20 73 1015 10 O 13
Ieri h: 16:50 nuvoloso Nuvoloso 27 18 57 1016 10 O/SO 11.1
Ieri h: 15:50 poco_nuvoloso Poco Nuvoloso 26 20 69 1016 10 O/SO 16.7
Ieri h: 12:50 poco_nuvoloso Poco Nuvoloso 25 19 69 1017 10 O 18.5
Ieri h: 11:50 poco_nuvoloso Poco Nuvoloso 26 18 61 1017 10 O 13
Ieri h: 10:50 poco_nuvoloso Poco Nuvoloso 25 19 69 1018 10 O 9.3
Ieri h: 09:50 poco_nuvoloso Poco Nuvoloso 24 19 73 1018 10 N 5.5